Regional Weather Roundup
Issued by NWS Sterling, VA

Home | Current Version | Previous Version | Graphics & Text | Print | Product List | Glossary On
Versions: 1 2 3 4 5 6 7 8 9 10 11 12 13 14 15 16 17 18 19 20 21 22 23 24 25 26 27 28
000
ASUS41 KLWX 292110
RWRLWX

REGIONAL WEATHER ROUNDUP
NATIONAL WEATHER SERVICE BALTIMORE MD/WASHINGTON DC
500 PM EDT SUN MAY 29 2016

Note: "FAIR" indicates few or no clouds below 12,000 feet
with no significant weather and/or obstructions to visibility.
 TC=TEMPERATURE CELSIUS

 * =Non NWS site. Station does not report precipitation (e.g. rain,
    snow, etc.), thunder, or fog.

DCZ001-MDZ009-015-VAZ040>042-051-053>054-292200-
WASHINGTON METRO

CITY           SKY/WX    TMP DP  RH WIND       PRES   REMARKS
WASHINGTON NAT LGT RAIN  76  71  85 SE14      30.07
DULLES         LGT RAIN  79  65  62 S5        30.07F
ANDREWS AFB    RAIN      72  70  94 S10       30.08  FOG
FT BELVOIR     RAIN      75  70  85 SE8       30.07S
QUANTICO       RAIN      74  72  93 S8        30.08S FOG
COLLEGE PARK*  CLOUDY    77  70  78 SE7       30.06F
LEESBURG*      DRIZZLE   81  68  65 S12       30.08S
MANASSAS*      MOSUNNY   81  70  69 S5        30.07F

$$

MDZ006>007-011-014-292200-
BALTIMORE METRO

CITY           SKY/WX    TMP DP  RH WIND       PRES   REMARKS
BWI AIRPORT    LGT RAIN  80  69  69 S7        30.05F
MD SCIENCE CTR   N/A     83  66  56 MISG      30.05F
MARTIN STATE   PTSUNNY   82  72  69 SE7       30.07F
ANNAPOLIS      LGT RAIN  75  71  87 S10       30.06F
FORT MEADE*    CLOUDY    73  70  88 S6        30.08F

$$

MDZ012-015-019>023-292200-
MARYLAND EASTERN SHORE

CITY           SKY/WX    TMP DP  RH WIND       PRES   REMARKS
OCEAN CITY     CLOUDY    72  68  87 VRB5      30.09F
SALISBURY      CLOUDY    77  74  90 S7        30.08F
BAY BRIDGE AP* LGT RAIN  75  73  94 S8        30.07S
CAMBRIDGE*     CLOUDY    77  70  78 S5        30.07F

$$

MDZ017>025-292200-
SOUTHERN MARYLAND

CITY           SKY/WX    TMP DP  RH WIND       PRES   REMARKS
PATUXENT RIVER LGT RAIN  74  71  91 SE5       30.07F
ST INIGOES     CLOUDY    76  73  91 SE6       30.06F
LEONARDTOWN*   CLOUDY    73  70  88 CALM      30.09F

$$

MDZ003>005-292200-
NORTH CENTRAL MARYLAND

CITY           SKY/WX    TMP DP  RH WIND       PRES   REMARKS
FREDERICK*     SUNNY     81  64  57 S5        30.08F
HAGERSTOWN APT CLOUDY    82  58  43 SW6       30.07F
WESTMINSTER*   CLOUDY    84  79  84 S7        30.07F HX  96

$$

MDZ501>502-292200-
WESTERN MARYLAND

CITY           SKY/WX    TMP DP  RH WIND       PRES   REMARKS
OAKLAND*       CLOUDY    61  57  88 CALM      30.20S
CUMBERLAND*    CLOUDY    70  63  78 N6        30.14F

$$

VAZ025>031-292200-
SHENANDOAH VALLEY

CITY           SKY/WX    TMP DP  RH WIND       PRES   REMARKS
WINCHESTER*    PTSUNNY   79  64  61 CALM      30.08S
FRONT ROYAL*   CLOUDY    79  68  69 CALM      30.07F
LURAY*         FAIR      77  64  65 SW6       30.08F
NEW MARKET*    FAIR      76  63  63 CALM      30.07F
STAUNTON*      LGT RAIN  69  64  84 SW6       30.14S
WAYNESBORO*    CLOUDY    64  57  79 SW5       30.14F

$$

WVZ021-048>050-054>055-292200-
EASTERN WEST VIRGINIA PANHANDLE

CITY           SKY/WX    TMP DP  RH WIND       PRES   REMARKS
MARTINSBURG    FAIR      78  63  59 CALM      30.06F
PETERSBURG*    LGT RAIN  75  67  76 CALM      30.10F

$$

VAZ036>039-050-292200-
CENTRAL FOOTHILLS

CITY           SKY/WX    TMP DP  RH WIND       PRES   REMARKS
CHARLOTTESVILL CLOUDY    78  64  61 W3        30.07F
CULPEPER*      DRIZZLE   79  65  64 CALM      30.08F
ORANGE*        CLOUDY    77  64  65 NE3       30.09F
GORDONSVILLE*  CLOUDY    76  69  78 CALM      30.07F
WARRENTON*     DRIZZLE   78  65  65 S3        30.07F

$$

VAZ055>057-292200-
NORTH AND CENTRAL PIEDMONT

CITY           SKY/WX    TMP DP  RH WIND       PRES   REMARKS
FREDERICKSBRG* RAIN      73  73 100 CALM      30.07F
STAFFORD*      LGT RAIN  72  70  92 S5        30.12S

$$

NCZ024-NYZ072-PAZ021-071-VAZ022-071-292200-
OTHER REGIONAL OBSERVATIONS

CITY           SKY/WX    TMP DP  RH WIND       PRES   REMARKS
NEW YORK CITY  MOSUNNY   77  63  61 S7        30.10F
PHILADELPHIA   CLOUDY    84  65  52 S10       30.06F
PITTSBURGH     CLOUDY    76  60  57 NW10      30.09R
ROANOKE        LGT RAIN  67  60  78 E12       30.14F
RICHMOND       RAIN      72  71  97 N6        30.06F FOG
RALEIGH        CLOUDY    72  70  94 N8        30.04R THUNDER

$$

ANZ530>537-292200-
MARINE OBSERVATIONS

STATION/POSITION TIME  TEMP    WIND        PRES
                       AIR SEA DIR/SP/G
                 (UTC) (F)     (DEG/KT/KT) (MB)
THOMAS PT LIGHT  2100   72 69  190/ 14/ 15 1019.4F
BALT KEY BRIDGE  2000   79     140/  8/  9 1018.1F
COVE POINT       2000   70     190/  9/ 10 1019.3F
LEWISETTA        2000   72 70  120/  7/  8 1018.3F
SOLOMONS ISLAND  2000   72 70  130/  3/  4   N/A
PINEY POINT      2012          150/  9/ 10   N/A

$$





USA.gov is the U.S. government's official web portal to all federal, state and local government web resources and services.